Date String (YYYY-MM-DD hh:mm:ss) UTC,Instrument flags,Ambient pressure (hPa),Sample flow (lpm),Bypass flow (lpm),Sample temperature (°C),Ambient temperature (°C),ASC tube jacket temperature (°C),LED temperature (°C),Box temperature (°C),Sample RH (%),Span deviation,Mass concentration (μg/m³),Mass concentration (μg/m³),Mass concentration (μg/m³)
DateTimeUTC,F1_M11,P_M11,Q1_M11,Q2_M11,T1_M11,T2_M11,T3_M11,T4_M11,T5_M11,U1_M11,ZSPAN_M11,X0_M11,X2_M11,X1_M11
2021-12-17 20:00:00,,0822.0,5.01,0.00,22.1,20.9,00.0,31.3,23.6,06.2,0000.0,0000.63,0000.30,0000.25
2021-12-17 20:01:00,,0821.8,4.99,0.00,22.1,20.9,00.0,31.2,23.7,06.2,0000.0,0000.70,0000.32,0000.25
2021-12-17 20:02:00,,0821.8,5.00,0.00,22.2,21.2,00.0,31.3,23.9,06.2,0000.0,0000.72,0000.33,0000.25
2021-12-17 20:03:00,,0822.0,4.99,0.00,22.3,22.1,00.0,31.3,24.2,06.2,0000.0,0000.62,0000.33,0000.26
2021-12-17 20:04:00,,0822.1,5.00,0.00,22.4,22.9,00.0,31.4,24.5,06.1,0000.0,0000.60,0000.33,0000.27
2021-12-17 20:05:00,,0822.1,4.99,0.00,22.6,23.0,00.0,31.4,24.6,06.1,0000.0,0000.60,0000.33,0000.27
2021-12-17 20:06:00,,0822.1,5.01,0.00,22.6,22.8,00.0,31.4,24.6,06.1,0000.0,0000.64,0000.34,0000.27
2021-12-17 20:07:00,,0821.9,4.99,0.00,22.6,22.6,00.0,31.4,24.4,06.0,0000.0,0000.63,0000.34,0000.27
2021-12-17 20:08:00,,0821.9,5.01,0.00,22.6,22.4,00.0,31.4,24.3,06.0,0000.0,0000.64,0000.34,0000.27
2021-12-17 20:09:00,,0821.9,4.99,0.00,22.6,22.3,00.0,31.5,24.3,06.0,0000.0,0000.68,0000.36,0000.27
2021-12-17 20:10:00,,0822.0,5.01,0.00,22.6,22.1,00.0,31.5,24.2,06.0,0000.0,0000.68,0000.36,0000.26
2021-12-17 20:11:00,,0822.1,5.00,0.00,22.6,22.0,00.0,31.5,24.2,06.0,0000.0,0000.59,0000.35,0000.25
2021-12-17 20:12:00,,0822.1,5.00,0.00,22.6,21.9,00.0,31.5,24.2,06.0,0000.0,0000.48,0000.32,0000.25
2021-12-17 20:13:00,,0822.2,5.00,0.00,22.5,21.7,00.0,31.5,24.2,06.0,0000.0,0000.47,0000.32,0000.25
2021-12-17 20:14:00,,0822.1,4.99,0.00,22.5,21.6,00.0,31.5,24.1,06.0,0000.0,0000.51,0000.33,0000.25
2021-12-17 20:15:00,,0822.0,5.00,0.00,22.5,21.6,00.0,31.5,24.1,06.0,0000.0,0000.54,0000.34,0000.25
2021-12-17 20:16:00,,0822.1,5.00,0.00,22.5,21.6,00.0,31.5,24.2,06.0,0000.0,0000.54,0000.34,0000.25
2021-12-17 20:17:00,,0822.0,5.00,0.00,22.5,21.6,00.0,31.5,24.2,06.1,0000.0,0000.51,0000.33,0000.25
2021-12-17 20:18:00,,0822.1,5.00,0.00,22.5,21.6,00.0,31.5,24.2,06.1,0000.0,0000.87,0000.33,0000.25
2021-12-17 20:19:00,,0822.1,5.00,0.00,22.5,21.6,00.0,31.5,24.2,06.1,0000.0,0001.17,0000.34,0000.26
2021-12-17 20:20:00,,0822.1,5.00,0.00,22.5,21.4,00.0,31.5,24.1,06.1,0000.0,0001.14,0000.32,0000.26
2021-12-17 20:21:00,,0822.0,5.00,0.00,22.4,21.4,00.0,31.5,24.1,06.0,0000.0,0001.12,0000.31,0000.26
2021-12-17 20:22:00,,0821.8,5.01,0.00,22.4,21.4,00.0,31.5,24.0,06.0,0000.0,0001.18,0000.33,0000.25
2021-12-17 20:23:00,,0821.8,5.00,0.00,22.4,21.4,00.0,31.5,24.0,06.0,0000.0,0002.00,0000.35,0000.26
2021-12-17 20:24:00,,0821.9,4.99,0.00,22.4,21.4,00.0,31.5,24.0,06.0,0000.0,0002.14,0000.35,0000.25
2021-12-17 20:25:00,,0821.9,5.01,0.00,22.4,21.4,00.0,31.5,24.0,06.0,0000.0,0002.15,0000.36,0000.25
2021-12-17 20:26:00,,0821.8,4.98,0.00,22.4,21.5,00.0,31.5,24.0,06.0,0000.0,0002.20,0000.38,0000.25
2021-12-17 20:27:00,,0821.9,5.00,0.00,22.3,21.5,00.0,31.5,24.0,06.0,0000.0,0002.25,0000.39,0000.24
2021-12-17 20:28:00,,0822.0,5.01,0.00,22.3,21.5,00.0,31.4,24.0,06.0,0000.0,0002.26,0000.38,0000.23
2021-12-17 20:29:00,,0821.9,5.00,0.00,22.3,21.4,00.0,31.4,23.9,06.1,0000.0,0001.98,0000.39,0000.23
2021-12-17 20:30:00,,0821.8,4.99,0.00,22.3,21.4,00.0,31.4,23.9,05.9,0000.0,0001.64,0000.39,0000.22
2021-12-17 20:31:00,,0821.9,5.00,0.00,22.3,21.4,00.0,31.4,23.9,05.9,0000.0,0001.72,0000.40,0000.22
2021-12-17 20:32:00,,0822.1,5.00,0.00,22.3,21.4,00.0,31.4,23.9,05.9,0000.0,0001.76,0000.41,0000.22
2021-12-17 20:33:00,,0822.1,5.01,0.00,22.3,21.3,00.0,31.4,23.9,06.0,0000.0,0003.02,0000.42,0000.23
2021-12-17 20:34:00,,0822.1,5.00,0.00,22.2,21.2,00.0,31.4,23.8,06.0,0000.0,0002.29,0000.41,0000.22
2021-12-17 20:35:00,,0822.1,4.99,0.00,22.2,21.2,00.0,31.4,23.8,05.8,0000.0,0002.11,0000.41,0000.22
2021-12-17 20:36:00,,0822.0,5.00,0.00,22.2,21.1,00.0,31.4,23.8,05.9,0000.0,0002.05,0000.39,0000.22
2021-12-17 20:37:00,,0822.0,5.01,0.00,22.2,21.1,00.0,31.4,23.8,05.9,0000.0,0001.97,0000.35,0000.21
2021-12-17 20:38:00,,0822.2,4.99,0.00,22.2,21.2,00.0,31.3,23.8,05.8,0000.0,0001.94,0000.35,0000.21
2021-12-17 20:39:00,,0822.1,5.00,0.00,22.2,21.2,00.0,31.3,23.7,05.9,0000.0,0002.04,0000.38,0000.21
2021-12-17 20:40:00,,0822.0,4.99,0.00,22.2,21.2,00.0,31.3,23.7,05.9,0000.0,0002.02,0000.37,0000.20
2021-12-17 20:41:00,,0821.9,5.01,0.00,22.1,21.2,00.0,31.3,23.7,06.0,0000.0,0001.99,0000.36,0000.20
2021-12-17 20:42:00,,0821.9,5.00,0.00,22.1,21.2,00.0,31.3,23.8,05.8,0000.0,0001.92,0000.34,0000.20
2021-12-17 20:43:00,,0822.1,5.01,0.00,22.2,21.8,00.0,31.3,24.0,05.8,0000.0,0002.31,0000.35,0000.21
2021-12-17 20:44:00,,0822.2,4.99,0.00,22.4,22.7,00.0,31.4,24.4,05.8,0000.0,0001.18,0000.32,0000.20
2021-12-17 20:45:00,,0822.2,5.00,0.00,22.5,23.1,00.0,31.4,24.6,05.9,0000.0,0001.02,0000.33,0000.21
2021-12-17 20:46:00,,0822.3,4.99,0.00,22.6,22.9,00.0,31.5,24.6,06.0,0000.0,0001.02,0000.33,0000.21
2021-12-17 20:47:00,,0822.4,5.02,0.00,22.6,22.7,00.0,31.5,24.5,05.9,0000.0,0001.02,0000.33,0000.21
2021-12-17 20:48:00,,0822.4,4.99,0.00,22.6,22.5,00.0,31.5,24.3,05.8,0000.0,0001.02,0000.34,0000.22
2021-12-17 20:49:00,,0822.5,5.01,0.00,22.6,22.3,00.0,31.5,24.2,05.9,0000.0,0000.99,0000.33,0000.22
2021-12-17 20:50:00,,0822.5,4.99,0.00,22.5,22.1,00.0,31.5,24.2,06.0,0000.0,0000.89,0000.30,0000.22
2021-12-17 20:51:00,,0822.5,5.00,0.00,22.5,22.0,00.0,31.5,24.2,06.0,0000.0,0000.86,0000.29,0000.23
2021-12-17 20:52:00,,0822.4,5.01,0.00,22.5,21.8,00.0,31.5,24.1,06.0,0000.0,0000.87,0000.29,0000.23
2021-12-17 20:53:00,,0822.4,5.00,0.00,22.5,21.7,00.0,31.5,24.1,06.0,0000.0,0000.92,0000.30,0000.23
2021-12-17 20:54:00,,0822.4,5.00,0.00,22.5,21.6,00.0,31.5,24.1,06.1,0000.0,0000.62,0000.29,0000.23
2021-12-17 20:55:00,,0822.4,4.99,0.00,22.5,21.6,00.0,31.5,24.1,06.1,0000.0,0000.57,0000.30,0000.23
2021-12-17 20:56:00,,0822.4,5.01,0.00,22.5,21.6,00.0,31.5,24.1,06.1,0000.0,0000.55,0000.29,0000.23
2021-12-17 20:57:00,,0822.4,5.00,0.00,22.5,21.6,00.0,31.5,24.1,06.1,0000.0,0000.52,0000.28,0000.23
2021-12-17 20:58:00,,0822.4,4.99,0.00,22.5,21.6,00.0,31.5,24.1,06.1,0000.0,0000.56,0000.28,0000.23
2021-12-17 20:59:00,,0822.3,5.00,0.00,22.5,21.5,00.0,31.5,24.1,06.0,0000.0,0000.72,0000.32,0000.24
